Flag for Canada Weather past 2 weeks in North Bay, Ontario, Canada

Now
1 °F

Clear.


Feels Like: -6 °F
Forecast: 0 / 28 °F
Wind: 3 mph from Northeast

Location: North Bay

Current Time: Mar 28, 2015 at 1:24:48 AM

Latest Report: Mar 28, 2015 at 1:00 AM


Visibility: 9 mi

Pressure: 30.16 "Hg

Humidity: 71%

Dew point: -6 °F

Location of North BayLocation

Historic Weather in North Bay — Graph

°F

North Bay temperature yesterday

Maximum temperature yesterday: 18 °F (at 12:00 AM)
Minimum temperature yesterday: 1 °F (at 8:00 AM)
Average temperature yesterday: 9 °F

Past Weeks' High & Low Weather Summary

 TemperatureHumidityPressure
High43 °F (Mar 16, 6:00 PM)100% (Mar 13, 3:00 AM)30.58 "Hg (Mar 13, 3:00 AM)
Low-11 °F (Mar 22, 7:00 AM)24% (Mar 18, 5:00 PM)29.65 "Hg (Mar 14, 4:00 PM)
Average21 °F72%30.07 "Hg
* Reported Midnight between Mar 12 and Mar 13 — Midnight between Mar 27 and Mar 28, North Bay, Weather by CustomWeather, © 2015

Note: Actual official high and low records may vary slightly from our data, if they occured in-between our weather recording intervals... More about our weather records

Advertising

North Bay weather history for previous 24 hours

 ConditionsComfort  
Time TempWeatherWind HumidityBarometerVisibility
12:00 AM
Sat, Mar 28
3 °FClear.5 mph66%30.16 "Hg9 mi
11:00 PM
Fri, Mar 27
7 °FClear.5 mph56%30.15 "Hg9 mi
10:00 PM7 °FClear.6 mph61%30.14 "Hg15 mi
9:00 PM9 °FClear.6 mph56%30.13 "Hg15 mi
8:00 PM10 °FSunny.8 mph56%30.11 "Hg15 mi
7:00 PM12 °FSunny.12 mph52%30.09 "Hg15 mi
6:00 PM14 °FSunny.14 mph48%30.07 "Hg15 mi
5:00 PM14 °FSunny.13 mph48%30.05 "Hg15 mi
4:00 PM14 °FSunny.15 mph48%30.04 "Hg15 mi
3:00 PM14 °FSunny.10 mph48%30.04 "Hg15 mi
2:00 PM12 °FPassing clouds.13 mph52%30.04 "Hg15 mi
1:00 PM10 °FScattered clouds.16 mph52%30.03 "Hg15 mi
12:00 PM9 °FScattered clouds.13 mph56%30.03 "Hg15 mi
11:00 AM5 °FLow level haze.10 mph72%30.04 "Hg15 mi
10:00 AM3 °FScattered clouds.12 mph72%30.04 "Hg15 mi
9:00 AM1 °FLight snow. Partly sunny.14 mph78%30.03 "Hg10 mi
8:00 AM1 °FLight snow. Passing clouds.14 mph85%30.03 "Hg8 mi
7:00 AM5 °FLight snow. Passing clouds.10 mph78%30.00 "Hg6 mi
6:00 AM7 °FLight snow. Overcast.12 mph78%29.97 "Hg2 mi
5:57 AM7 °FLight snow. Overcast.16 mph78%29.97 "Hg2 mi
5:00 AM7 °FLight snow. Overcast.9 mph85%29.95 "Hg4 mi
4:00 AM9 °FLight snow. Overcast.13 mph78%29.92 "Hg6 mi
3:57 AM9 °FLight snow. Overcast.13 mph78%29.92 "Hg6 mi
3:00 AM12 °FLight snow. Overcast.13 mph79%29.90 "Hg9 mi
2:00 AM14 °FLight snow. Mostly cloudy.13 mph85%29.88 "Hg3 mi
1:00 AM16 °FLight snow. Overcast.15 mph86%29.88 "Hg1 mi
Weather by CustomWeather, © 2015

See weather overviewHow to use our weather pages